Location: Stull Observatory
(42.2506°N, 77.7903°W)
Time: 14:43:37
(UTC-04:00)

ISS - All Passes

Search period start: 27 July 2017 00:00
Search period end: 06 August 2017 00:00
Orbit: 400 x 408 km, 51.6° (Epoch: 28 July)

Date Brightness Start Highest point End Pass type
(mag) Time Alt. Az. Time Alt. Az. Time Alt. Az.
27 Jul - 00:12:02 10° NW 00:14:07 16° N 00:16:12 10° NE visible
27 Jul - 01:48:31 10° NW 01:51:23 27° NNE 01:54:15 10° E visible
27 Jul - 03:24:49 10° WNW 03:27:59 49° SW 03:31:09 10° SE night (unlit)
27 Jul - 20:04:53 10° SSW 20:07:53 35° SE 20:10:53 10° ENE daylight
27 Jul - 21:41:23 10° W 21:44:21 33° NNW 21:47:21 10° NE visible
27 Jul - 23:19:26 10° NW 23:21:33 16° N 23:23:41 10° NE visible
28 Jul - 00:56:20 10° NW 00:58:54 21° NNE 01:01:28 10° ENE visible
28 Jul - 02:32:29 10° NW 02:35:45 86° NNE 02:39:00 10° SE night (unlit)
28 Jul - 04:10:42 10° WSW 04:11:45 11° SW 04:12:49 10° SSW night (unlit)
28 Jul - 19:13:23 10° S 19:15:45 19° SE 19:18:08 10° E daylight
28 Jul - 20:48:47 10° WSW 20:51:58 53° NNW 20:55:10 10° NE daylight
28 Jul - 22:26:40 10° WNW 22:28:59 18° N 22:31:19 10° NE visible
29 Jul - 00:04:05 10° NW 00:06:22 17° N 00:08:39 10° NE visible
29 Jul - 01:40:14 10° NW 01:43:25 48° NNE 01:46:35 10° ESE visible
29 Jul - 03:17:09 10° W 03:19:41 21° SW 03:22:13 10° S night (unlit)
29 Jul - 19:56:24 10° SW 19:59:39 86° SE 20:02:54 10° ENE daylight
29 Jul - 21:33:50 10° WNW 21:36:27 22° NNW 21:39:04 10° NE visible
29 Jul - 23:11:41 10° NW 23:13:47 16° N 23:15:53 10° NE visible
30 Jul - 00:48:02 10° NW 00:50:59 31° NNE 00:53:57 10° E visible
30 Jul - 02:24:27 10° WNW 02:27:31 39° SW 02:30:35 10° SSE night (unlit)
30 Jul - 19:04:16 10° SSW 19:07:23 44° SE 19:10:30 10° ENE daylight
30 Jul - 20:41:02 10° W 20:43:57 29° NNW 20:46:51 10° NE daylight
30 Jul - 22:19:06 10° NW 22:21:11 16° N 22:23:16 10° NE visible
30 Jul - 23:55:50 10° NW 23:58:30 23° NNE 00:01:11 10° ENE visible
31 Jul - 01:32:01 10° WNW 01:35:16 77° SW 01:38:30 10° SE visible
31 Jul - 18:12:31 10° S 18:15:11 23° SE 18:17:51 10° E daylight
31 Jul - 19:48:21 10° WSW 19:51:30 44° NNW 19:54:38 10° NE daylight
31 Jul - 21:26:19 10° NW 21:28:34 17° N 21:30:49 10° NE visible
31 Jul - 23:03:34 10° NW 23:05:57 18° NNE 23:08:19 10° ENE visible
01 Aug - 00:39:42 10° NW 00:42:55 58° NNE 00:46:08 10° ESE visible
01 Aug - 02:16:54 10° W 02:19:06 17° SW 02:21:17 10° S night (unlit)
01 Aug - 17:21:33 10° SSE 17:23:03 13° SE 17:24:33 10° ESE daylight
01 Aug - 18:55:51 10° WSW 18:59:06 77° NNW 19:02:22 10° NE daylight
01 Aug - 20:33:28 10° WNW 20:35:59 20° NNW 20:38:29 10° NE daylight
01 Aug - 22:11:11 10° NW 22:13:20 16° N 22:15:29 10° NE visible
01 Aug - 23:47:26 10° NW 23:50:30 36° NNE 23:53:32 10° E visible
02 Aug - 01:24:00 10° WNW 01:26:55 31° SW 01:29:51 10° SSE night (unlit)
02 Aug - 18:03:35 10° SW 18:06:46 56° SE 18:09:58 10° ENE daylight
02 Aug - 19:40:37 10° W 19:43:25 26° NNW 19:46:13 10° NE daylight
02 Aug - 21:18:38 10° NW 21:20:42 16° N 21:22:46 10° NE visible
02 Aug - 22:55:12 10° NW 22:57:59 25° NNE 23:00:45 10° ENE visible
03 Aug - 00:31:27 10° WNW 00:34:40 61° SW 00:37:52 10° SE visible
03 Aug - 17:11:38 10° SSW 17:14:31 29° SE 17:17:23 10° ENE daylight
03 Aug - 18:47:50 10° W 18:50:54 38° NNW 18:53:59 10° NE daylight
03 Aug - 20:25:52 10° NW 20:28:03 16° N 20:30:13 10° NE daylight
03 Aug - 22:02:56 10° NW 22:05:24 20° NNE 22:07:52 10° ENE visible
03 Aug - 23:39:03 10° NW 23:42:19 72° NNE 23:45:33 10° ESE visible
04 Aug - 01:16:39 10° W 01:18:23 14° SW 01:20:06 10° SSW night (unlit)
04 Aug - 16:20:16 10° S 16:22:18 16° SE 16:24:22 10° E daylight
04 Aug - 17:55:13 10° WSW 17:58:27 63° NNW 18:01:41 10° NE daylight
04 Aug - 19:32:59 10° WNW 19:35:24 19° NNW 19:37:49 10° NE daylight
04 Aug - 21:10:33 10° NW 21:12:46 17° N 21:14:59 10° NE visible
04 Aug - 22:46:45 10° NW 22:49:52 41° NNE 22:52:58 10° E visible
05 Aug - 00:23:28 10° WNW 00:26:12 25° SW 00:28:57 10° SSE visible
05 Aug - 17:02:49 10° SW 17:06:03 70° SE 17:09:18 10° ENE daylight
05 Aug - 18:40:04 10° WNW 18:42:47 24° NNW 18:45:30 10° NE daylight
05 Aug - 20:18:01 10° NW 20:20:05 16° N 20:22:10 10° NE daylight
05 Aug - 21:54:28 10° NW 21:57:20 28° NNE 22:00:12 10° E visible
05 Aug - 23:30:47 10° WNW 23:33:56 48° SW 23:37:04 10° SE visible
